Terminal Aerodrome Forecast
Issued by NWS Bismarck, ND

Current Version | Previous Version | Text Only | Print | Product List | Glossary On
Versions: 1 2 3 4 5 6 7 8 9 10 11 12 13 14 15 16 17 18 19 20 21 22 23 24 25
000
FTUS43 KBIS 271100
TAFBIS
TAF
KBIS 271134Z 2712/2812 13004KT P6SM BKN035 OVC070
      TEMPO 2713/2714 SCT035
     FM271400 25006KT P6SM FEW030 SCT200
     FM271900 24005KT P6SM FEW020 BKN080
     FM280300 36005KT P6SM BKN035 OVC090
     FM280600 04007KT 5SM -SN BR OVC025=

USA.gov is the U.S. government's official web portal to all federal, state and local government web resources and services.